Theta_e
318 318 319 318 318 318 318 318 318 318 318 318 318 319 319 319 319 320 321 320 319 319 319 319 318 317 321 316 315 333 351 345 335 330 322 327 324 320 316 318 320 324 330 333 334 332 331
317 317 318 318 318 317 317 317 317 317 317 318 318 319 318 319 319 319 319 319 318 318 318 318 317 316 321 310 325 336 337 325 330 326 322 329 321 322 318 318 319 329 331 331 331 328 328
316 316 316 317 316 316 316 316 316 316 316 317 317 317 318 318 318 317 317 317 317 317 316 316 316 322 318 314 332 333 337 323 325 324 322 328 325 320 320 321 329 332 327 330 329 331 326
316 315 315 316 316 315 315 315 315 315 316 316 317 317 317 317 317 316 316 315 319 316 316 317 320 326 315 324 335 327 326 324 326 330 329 329 325 320 319 327 328 324 324 319 327 330 328
315 315 314 315 315 315 314 315 315 316 316 316 316 316 316 316 316 315 314 315 318 318 319 321 328 325 318 330 327 327 326 321 325 328 329 323 323 319 322 318 316 320 313 315 321 330 328
314 314 314 314 314 314 315 315 315 315 315 315 315 315 315 315 315 314 313 315 322 324 325 327 329 321 322 319 324 324 326 323 324 324 321 320 319 315 316 315 307 310 312 315 315 324 327
313 313 313 314 314 314 315 315 315 315 315 315 315 314 314 314 313 312 315 325 324 322 325 320 320 318 318 323 327 322 325 322 323 319 313 318 314 310 312 315 314 313 312 313 317 323 323
313 313 313 313 313 314 314 314 314 314 315 315 314 314 313 313 312 311 318 323 324 324 316 321 321 321 323 323 316 320 326 318 316 311 314 312 310 314 315 314 313 312 311 311 318 322 323
313 312 312 313 314 314 314 314 314 314 314 314 314 313 313 312 311 316 318 317 328 326 316 317 320 319 320 322 315 316 322 319 314 311 311 309 311 316 314 313 312 312 311 311 313 322 325
312 313 313 313 314 314 314 314 314 314 313 313 313 313 312 309 311 316 315 328 325 328 311 312 313 318 320 318 313 320 322 318 314 311 312 313 315 313 312 312 314 310 315 314 314 319 311
313 313 313 313 313 313 314 314 313 313 313 313 313 313 310 309 313 312 321 322 327 323 299 312 315 324 320 315 316 316 324 318 312 313 313 311 311 312 311 312 315 312 319 317 317 318 317
313 312 311 312 313 313 313 313 313 313 312 312 312 312 310 314 315 316 318 323 326 308 297 308 313 313 313 315 315 318 317 320 318 314 315 314 317 316 315 315 315 321 320 319 319 314 307
312 311 311 311 313 313 313 313 313 312 312 311 310 309 308 313 311 320 321 326 310 301 311 307 308 312 312 310 312 313 313 312 310 307 309 312 313 316 317 313 317 317 313 305 303 303 302
312 311 313 311 313 313 313 313 313 312 311 310 308 306 312 314 320 316 314 314 304 306 307 313 310 311 308 311 311 312 311 310 314 313 310 307 305 313 317 315 312 313 311 305 298 299 303
312 312 313 312 313 313 313 313 312 311 311 309 307 316 315 320 318 320 312 306 307 308 313 311 309 306 308 310 310 311 311 311 313 314 309 308 308 315 316 317 317 312 308 313 306 307 303
312 312 312 312 313 313 313 313 312 311 311 309 311 311 312 322 324 314 311 304 310 313 314 312 307 309 305 308 308 309 310 314 312 315 317 312 307 313 314 316 315 315 317 307 308 300 299
312 312 312 312 312 312 313 313 312 311 310 308 310 305 318 324 322 309 306 310 312 314 314 311 310 309 309 308 309 309 310 313 314 313 316 314 311 311 314 312 311 311 311 312 312 308 302
311 312 312 312 312 312 313 313 312 310 308 309 311 302 321 322 309 310 309 312 309 312 314 312 313 312 311 310 309 310 309 313 315 315 310 314 312 308 309 315 317 316 313 313 307 307 308
311 311 312 313 311 313 313 312 311 309 309 309 308 308 323 320 306 310 314 312 313 311 311 311 311 313 313 312 309 311 312 315 315 315 314 315 309 305 307 312 314 312 315 315 314 313 308
310 311 311 312 312 312 312 312 311 310 308 309 311 306 315 317 317 312 311 310 309 311 311 311 312 314 313 312 315 312 313 316 318 317 321 318 312 309 304 308 312 310 312 314 313 308 309
309 310 311 311 313 312 312 312 311 310 308 310 314 310 310 309 311 311 310 310 309 308 312 313 312 311 312 311 312 311 315 316 318 317 318 317 311 313 312 312 312 311 312 312 312 312 309
309 310 310 311 311 312 312 312 311 310 308 311 307 307 313 314 309 308 304 309 306 308 310 309 310 312 314 312 314 311 314 316 315 319 319 320 313 315 310 312 311 309 312 313 313 313 313
308 309 310 310 311 312 312 313 312 311 308 309 310 312 308 302 308 308 308 308 307 310 311 312 313 314 312 314 316 318 318 319 318 318 318 318 315 314 307 312 311 307 312 313 314 315 314
307 308 308 309 310 311 312 312 312 311 309 308 308 308 305 302 308 305 305 305 306 307 309 311 314 315 315 320 319 317 317 317 317 318 319 319 318 315 308 312 301 312 318 317 314 315 316
306 307 308 308 308 310 311 312 312 312 311 309 309 308 306 302 302 301 301 303 305 308 308 309 313 317 319 317 314 312 311 313 314 316 317 320 318 311 307 307 310 311 313 313 312 313 318
306 306 307 307 308 308 310 311 311 311 311 310 307 309 308 302 301 303 301 302 303 305 306 309 316 316 319 315 312 308 303 308 308 312 317 317 320 312 309 303 301 312 317 320 319 308 317
306 306 306 306 307 307 309 310 311 311 311 309 308 308 307 302 306 306 303 301 305 305 303 309 307 314 318 312 308 307 306 311 306 307 310 311 313 308 307 306 308 317 317 319 306 310 319
306 306 306 306 306 307 307 309 311 311 310 309 309 310 303 301 303 303 304 303 305 305 301 306 306 312 312 308 308 308 308 311 309 312 311 311 309 307 309 306 303 319 316 311 321 323 321
306 306 306 306 306 307 307 309 310 310 310 309 306 310 309 303 303 307 307 308 307 306 304 305 304 309 308 307 312 311 308 312 310 305 313 308 313 311 312 312 321 320 320 322 323 323 325
Wind_Speed
17 18 18 19 18 19 20 21 21 21 21 22 22 22 21 21 22 22 20 19 17 13 10 7 5 4 7 9 10 6 6 9 12 12 11 11 9 7 8 9 8 14 12 11 10 10 13
17 17 18 18 19 19 20 21 21 21 22 22 22 22 22 21 21 21 21 19 16 10 6 4 3 5 6 12 4 2 8 15 14 15 11 9 5 5 7 9 4 10 14 14 12 13 15
18 18 18 19 19 20 20 21 22 22 23 23 22 22 23 22 22 23 22 20 14 5 2 3 5 6 7 0 2 6 13 16 13 14 11 4 4 9 10 12 11 16 16 12 12 8 15
17 18 19 19 19 19 20 21 22 23 22 23 23 23 24 23 23 22 21 19 9 3 3 6 7 5 5 2 3 9 9 11 11 7 6 5 3 5 2 15 10 12 14 12 10 13 7
17 17 18 18 19 20 21 21 22 22 22 23 24 24 24 24 22 20 18 17 2 5 5 7 7 5 6 4 8 11 11 14 13 8 7 4 6 5 9 14 13 13 12 11 13 13 2
16 17 18 19 19 20 19 20 21 21 23 23 24 24 24 24 22 20 19 9 7 9 6 7 7 7 6 10 10 10 8 11 14 12 9 10 9 11 12 14 13 15 11 12 12 14 9
17 16 18 19 19 20 20 21 21 22 23 24 24 24 25 25 23 18 14 6 7 7 9 10 2 3 7 10 12 11 12 14 13 15 14 12 13 15 17 16 11 13 16 13 10 5 10
17 18 18 19 20 21 21 21 22 22 23 24 24 25 25 26 24 21 8 8 4 6 11 10 12 8 5 9 13 15 14 15 16 17 16 10 17 17 12 6 11 12 12 11 6 6 12
17 18 19 18 19 20 21 22 22 23 23 24 24 24 25 27 29 7 7 12 4 3 8 5 10 9 14 12 18 20 19 13 19 20 17 16 19 12 12 13 15 14 15 12 13 9 11
17 16 17 18 19 20 21 22 23 24 24 24 24 23 23 31 8 6 6 4 9 7 7 11 11 10 11 16 14 19 21 14 10 18 20 13 11 14 16 16 14 14 10 13 15 15 12
16 16 17 18 19 20 21 22 23 24 24 25 25 23 22 13 13 7 5 5 4 7 7 11 14 11 21 22 20 17 18 10 19 13 10 12 15 14 14 13 10 7 8 9 12 18 7
16 17 19 19 19 20 21 22 23 24 25 26 26 22 22 4 7 13 11 7 5 9 7 9 10 15 20 18 21 22 15 11 2 13 14 12 5 11 8 6 6 13 13 7 9 7 11
17 19 19 19 17 19 20 22 24 25 26 27 28 26 14 7 4 3 8 6 9 10 5 8 14 21 23 16 19 20 21 18 12 15 15 10 14 9 17 14 11 13 15 9 10 9 10
17 17 17 18 16 19 20 23 24 25 27 28 30 31 5 9 6 7 7 8 10 6 9 3 6 20 22 19 18 23 20 18 14 14 17 16 14 14 14 13 12 17 15 6 8 9 5
17 17 17 16 17 19 20 22 24 26 27 29 33 4 5 5 13 3 10 10 9 6 3 3 10 15 18 18 11 18 20 20 18 15 8 14 12 12 14 8 10 11 10 6 2 3 8
16 18 16 17 17 19 20 22 24 26 28 30 8 6 7 5 9 6 11 13 8 4 6 4 9 17 21 20 15 19 20 20 18 16 14 9 11 14 9 9 4 8 11 9 9 7 9
15 16 16 17 18 19 19 21 23 26 28 28 6 6 6 5 10 7 12 15 12 10 7 5 4 8 17 19 21 22 20 12 19 19 14 12 12 10 11 13 15 8 11 9 6 5 8
15 15 17 18 18 18 20 21 22 24 27 10 5 6 4 7 9 11 14 10 3 9 6 8 6 8 11 16 20 19 21 18 12 11 13 17 11 12 16 5 6 15 18 16 10 11 6
15 17 17 18 17 17 20 21 21 22 18 8 6 4 4 6 9 10 10 10 9 7 6 4 5 3 2 11 14 18 17 7 11 14 11 13 11 14 13 9 6 11 11 13 16 10 7
15 16 17 17 16 18 19 20 21 22 19 6 6 4 5 6 4 6 10 12 10 3 5 5 8 7 6 8 5 12 11 8 10 13 7 8 15 18 15 17 14 18 15 17 16 13 10
14 15 16 17 16 17 18 20 21 23 20 5 2 4 5 3 6 3 4 2 10 7 2 2 7 6 6 7 9 8 10 13 10 7 8 12 12 14 19 17 13 15 18 18 20 16 15
14 15 15 16 17 17 18 19 21 24 29 5 6 6 1 1 2 6 4 3 3 2 3 4 5 4 6 8 6 5 4 5 7 9 10 6 9 9 15 11 14 14 17 17 18 12 8
12 13 16 16 16 17 17 18 19 21 20 4 4 2 6 3 2 6 4 0 3 4 4 2 6 7 7 6 9 9 8 7 5 5 9 8 7 9 14 11 10 15 14 16 12 10 10
12 12 13 15 17 17 18 16 16 17 15 5 5 6 6 3 2 4 2 4 1 5 4 5 5 5 7 12 7 5 8 8 6 4 6 7 9 6 6 8 14 1 1 12 13 12 10
11 12 12 13 15 17 17 16 15 14 15 4 5 5 5 1 3 2 6 4 6 2 4 3 4 7 11 8 7 7 7 6 8 4 7 5 8 7 8 13 12 8 5 8 11 11 9
10 11 11 12 13 15 16 16 14 12 13 6 4 6 5 7 5 4 7 4 5 3 6 1 2 8 6 5 7 11 13 12 15 10 3 6 6 10 9 17 20 12 9 8 2 9 10
11 9 10 10 11 12 15 15 13 12 12 9 3 7 6 5 5 5 3 6 5 3 5 1 7 4 4 6 9 10 13 2 11 13 9 10 9 14 13 12 11 10 9 7 10 3 7
12 9 9 10 10 11 12 13 13 11 11 9 3 5 5 5 3 3 4 5 3 2 5 8 6 3 5 7 6 5 9 5 6 3 4 11 10 10 11 11 13 9 8 10 6 6 5
10 10 9 10 10 10 11 12 12 9 9 9 4 4 5 5 6 5 9 9 7 5 6 5 4 3 5 6 0 4 6 2 6 8 5 7 4 6 4 4 6 4 3 6 7 9 12
Wind_Direction
9 8 6 3 0 359 355 353 351 348 344 343 339 333 332 332 331 328 326 326 323 314 298 285 280 280 252 214 250 103 155 149 174 197 213 209 209 199 182 132 151 113 99 104 122 121 112
8 4 3 3 1 359 356 352 351 347 344 339 338 332 330 331 331 330 327 327 324 312 290 263 236 234 242 231 71 143 178 170 179 199 199 214 216 233 139 124 154 117 118 117 118 123 122
5 3 2 0 2 359 357 352 349 347 341 338 335 334 330 330 331 331 329 329 321 296 239 207 191 241 239 195 26 140 165 182 189 206 187 185 176 233 158 115 130 133 130 138 134 137 129
5 1 359 360 360 358 355 352 348 344 339 336 333 332 330 328 329 329 328 329 332 174 176 174 194 249 265 83 200 168 164 160 180 196 257 144 227 136 139 119 145 172 163 162 161 163 151
3 0 358 355 356 355 351 349 346 341 338 335 332 331 330 328 327 328 325 322 83 141 162 183 219 253 139 145 179 165 186 163 169 170 137 159 210 128 148 168 170 184 185 199 164 193 169
1 358 356 354 352 350 346 344 342 340 337 335 332 329 329 326 325 325 323 288 149 165 192 226 262 244 194 189 143 158 171 165 168 159 168 199 196 174 187 194 193 189 218 189 188 186 209
357 358 355 353 349 345 343 340 339 338 336 334 332 329 328 325 324 322 309 207 215 179 206 274 68 309 138 116 146 176 162 171 177 183 189 205 216 209 185 211 265 194 220 194 198 158 209
354 353 352 349 346 341 339 338 336 335 335 333 331 329 328 325 320 317 260 274 56 337 293 246 245 255 214 187 164 165 184 179 183 191 200 184 223 212 231 196 224 234 212 210 128 196 221
352 351 349 346 342 339 336 335 334 333 332 331 330 329 329 325 320 273 272 283 334 231 258 206 199 204 182 195 185 170 193 199 194 197 194 201 201 149 185 194 205 206 216 204 216 181 214
343 344 342 341 339 337 334 332 332 330 329 328 328 329 333 330 288 345 262 118 302 209 269 166 193 189 171 186 200 171 197 191 198 197 195 224 136 181 197 192 215 195 223 251 194 192 207
337 335 337 337 335 335 333 330 330 329 327 325 324 327 329 326 313 257 49 307 280 237 265 133 143 130 157 191 145 179 194 200 189 180 191 181 180 186 194 192 208 86 140 162 186 212 159
333 335 337 335 333 333 332 329 329 329 326 323 320 323 330 230 221 256 301 287 223 228 237 158 148 172 173 202 168 153 184 230 272 170 214 150 169 196 170 135 157 130 126 133 193 197 222
333 334 334 334 333 330 332 330 329 328 325 322 318 314 303 279 272 1 298 218 233 243 128 171 182 172 186 179 169 174 189 196 187 184 179 163 176 145 154 119 143 181 173 177 201 199 245
328 327 326 332 333 329 332 330 328 328 326 324 321 311 204 221 245 261 266 221 254 237 236 97 205 189 193 174 182 183 185 190 218 216 183 187 172 172 185 177 179 203 205 245 210 235 227
326 326 328 331 331 327 330 329 329 329 328 327 314 277 248 227 219 232 232 214 234 250 30 244 177 200 195 181 188 190 198 203 191 219 211 205 194 145 184 156 196 169 216 310 318 255 269
324 329 331 330 328 327 329 330 330 331 329 329 305 283 245 152 177 185 236 231 249 290 325 246 234 201 200 190 203 200 192 206 201 203 243 194 211 186 151 157 160 241 182 196 216 259 252
329 327 332 325 331 330 332 334 333 332 331 324 253 271 67 170 193 197 229 218 232 261 278 276 256 209 236 197 202 194 185 182 206 192 215 222 238 157 166 208 209 178 205 231 309 322 301
334 333 332 329 331 332 336 336 334 333 335 306 285 243 86 201 199 206 232 219 206 247 228 261 275 273 224 210 203 209 216 211 179 168 200 219 209 219 210 123 286 222 214 197 226 180 227
341 338 333 330 332 339 337 336 334 335 350 308 292 288 145 231 216 199 224 237 244 228 239 284 267 249 243 205 208 210 207 177 175 193 209 180 223 215 186 185 176 223 217 228 226 247 271
338 336 337 338 340 339 339 338 335 337 342 270 275 237 165 209 319 291 211 229 206 159 242 281 291 280 234 194 213 190 189 163 192 219 52 199 228 220 217 222 217 208 223 225 234 232 239
335 339 338 339 343 341 341 341 340 341 345 266 258 79 8 187 172 269 230 334 228 203 186 257 215 248 300 225 181 191 189 147 173 153 194 215 228 226 232 251 241 227 213 218 228 241 260
334 341 341 342 346 345 345 345 348 347 334 269 322 326 340 11 268 245 166 160 261 128 312 158 283 328 256 254 350 239 243 213 186 168 180 210 233 215 230 227 230 236 236 210 225 234 248
334 338 346 349 348 348 348 349 354 359 342 343 8 245 282 105 269 240 82 8 74 320 120 45 340 299 218 60 328 310 304 300 308 298 183 197 190 210 217 194 212 229 200 204 200 214 234
325 334 343 344 346 348 350 352 358 4 1 317 16 287 280 101 319 21 358 319 319 343 317 339 335 307 34 317 269 232 239 250 239 218 270 214 211 224 228 168 217 141 320 227 227 218 220
315 325 337 341 344 346 345 352 358 1 359 342 346 318 326 298 336 155 348 341 296 271 253 301 15 6 317 286 224 191 188 209 206 237 216 250 233 218 232 221 237 147 181 190 204 215 231
294 310 323 332 340 342 344 348 354 359 356 311 18 318 298 302 81 336 327 350 323 340 234 160 15 329 300 267 222 215 214 219 209 171 216 206 246 257 206 253 249 258 169 179 161 247 257
271 283 305 319 330 338 338 341 346 354 353 319 16 358 283 298 77 324 1 344 328 286 277 313 352 316 257 242 228 221 233 219 238 219 189 200 226 230 233 244 255 107 127 158 217 314 8
269 262 285 303 316 327 332 338 341 343 348 324 20 5 334 313 331 324 339 317 307 294 304 26 249 164 249 248 256 208 261 169 242 309 225 223 220 220 243 259 234 131 142 237 16 340 354
263 267 271 285 303 318 325 329 333 334 334 320 306 357 329 260 350 320 301 292 291 348 326 334 3 19 14 274 181 311 231 221 267 215 169 233 333 306 296 38 84 78 346 324 313 293 293